White Mountain, AK

9:29 AM AKST on December 12, 2017 (GMT -0900)
White Mountain

Weather History for PAWM - May, 2013

Change the Weather History Date:

Sunday, May 19, 2013

  Actual Average (PAOM) Record (PAOM)
Temperature  
Mean Temperature 32 °F -  
Max Temperature 36 °F 42 °F 65 °F (2010)
Min Temperature 28 °F 31 °F 16 °F (1933)
Degree Days  
Heating Degree Days 34    
Moisture  
Dew Point 30 °F    
Average Humidity 97    
Maximum Humidity 100    
Minimum Humidity 78    
Precipitation  
Precipitation 0.00 in - - ()
Sea Level Pressure  
Sea Level Pressure 30.26 in    
Wind  
Wind Speed 17 mph (South)    
Max Wind Speed 22 mph    
Max Gust Speed 30 mph    
Visibility 2 miles    
Events Fog , Snow    
Averages and records for this station are not official NWS values.
T = Trace of Precipitation, MM = Missing Value Source: NWS Daily Summary

Daily Weather History Graph

Daily Weather History Graph

Search for Another Location

Airport or City:

Trip Planner

Search our weather history database for the weather conditions in past years. The results will help you decide how hot, cold, wet, or windy it might be!

Date:

Astronomy

May. 19, 2013 Rise Set
Actual Time 5:17 AM AKDT 12:25 AM AKDT
Civil Twilight 3:22 AM AKDT 2:17 AM AKDT
Nautical Twilight Sun does not rise Sun does not rise
Astronomical Twilight Sun does not rise Sun does not rise
Moon 4:25 PM AKDT (5/19) 4:13 AM AKDT (5/19)
Length of Visible Light 22h 55m
Length of Day
19h 08m
Waxing Gibbous, 66% of the Moon is Illuminated
May 19
Waxing Gibbous
May 24
Full
May 31
Last Quarter
Jun 8
New
Jun 16
First Quarter

Hourly Weather History & Observations

Time (AKDT) Temp. Windchill Dew Point Humidity Pressure Visibility Wind Dir Wind Speed Gust Speed Precip Events Conditions
12:05 AM 28.4 °F 15.8 °F 28.4 °F 100% 30.11 in 1.0 mi SSW 18.4 mph 23.0 mph 0.00 in Snow Light Snow
12:12 AM 28.4 °F 15.8 °F 28.4 °F 100% 30.11 in 0.8 mi South 18.4 mph 23.0 mph 0.00 in Snow Light Snow
12:22 AM 28.4 °F 17.0 °F 28.4 °F 100% 30.11 in 1.2 mi South 15.0 mph 24.2 mph 0.00 in Snow Light Snow
12:41 AM 28.4 °F 15.8 °F 28.4 °F 100% 30.11 in 1.0 mi South 18.4 mph 24.2 mph 0.00 in Snow Light Snow
12:51 AM 28.4 °F 16.6 °F 28.4 °F 100% 30.12 in 1.2 mi South 16.1 mph 24.2 mph 0.00 in Snow Light Snow
12:58 AM 28.9 °F 17.3 °F 28.0 °F 96% 30.16 in 1.2 mi South 16.1 mph 24.2 mph 0.00 in Snow Light Snow
1:09 AM 28.4 °F 17.5 °F 28.4 °F 100% 30.12 in 2.0 mi South 13.8 mph 24.2 mph 0.00 in Snow Light Snow
1:31 AM 28.4 °F 16.6 °F 28.4 °F 100% 30.12 in 1.8 mi South 16.1 mph 24.2 mph 0.00 in Snow Light Snow
1:58 AM 28.0 °F 15.3 °F 28.0 °F 100% 30.17 in 1.2 mi South 18.4 mph 26.5 mph 0.00 in Snow Light Snow
2:44 AM 28.4 °F 17.0 °F 28.4 °F 100% 30.13 in 1.8 mi South 15.0 mph 25.3 mph 0.00 in Snow Light Snow
2:58 AM 28.0 °F 15.7 °F 28.0 °F 100% 30.17 in 2.0 mi South 17.3 mph 26.5 mph 0.00 in Snow Light Snow
3:12 AM 28.4 °F 16.6 °F 28.4 °F 100% 30.14 in 1.8 mi South 16.1 mph 23.0 mph 0.00 in Snow Light Snow
3:19 AM 28.4 °F 16.6 °F 28.4 °F 100% 30.14 in 2.0 mi South 16.1 mph 24.2 mph 0.00 in Snow Light Snow
3:26 AM 28.4 °F 16.2 °F 28.4 °F 100% 30.14 in 1.8 mi South 17.3 mph 21.9 mph 0.00 in Snow Light Snow
3:52 AM 28.4 °F 15.8 °F 28.4 °F 100% 30.14 in 2.0 mi South 18.4 mph 23.0 mph 0.00 in Snow Light Snow
3:57 AM 28.0 °F 14.6 °F 28.0 °F 100% 30.17 in 1.5 mi South 20.7 mph 28.8 mph 0.00 in Snow Light Snow
4:58 AM 28.0 °F 14.9 °F 28.0 °F 100% 30.19 in 2.5 mi South 19.6 mph 26.5 mph 0.00 in Snow Light Snow
5:15 AM 28.4 °F 17.0 °F 28.4 °F 100% 30.16 in 1.2 mi South 15.0 mph 24.2 mph 0.00 in Snow Light Snow
5:21 AM 28.4 °F 16.6 °F 28.4 °F 100% 30.16 in 1.0 mi South 16.1 mph 21.9 mph 0.00 in Snow Light Snow
5:27 AM 28.4 °F 17.0 °F 28.4 °F 100% 30.16 in 1.5 mi South 15.0 mph 21.9 mph 0.00 in Snow Light Snow
5:33 AM 28.4 °F 16.2 °F 28.4 °F 100% 30.16 in 2.0 mi South 17.3 mph 23.0 mph 0.00 in Snow Light Snow
5:41 AM 28.4 °F 17.5 °F 28.4 °F 100% 30.16 in 1.5 mi South 13.8 mph 24.2 mph 0.00 in Snow Light Snow
5:46 AM 28.4 °F 16.6 °F 28.4 °F 100% 30.16 in 1.0 mi South 16.1 mph 21.9 mph 0.00 in   Overcast
5:56 AM 28.4 °F 17.0 °F 28.4 °F 100% 30.16 in 0.8 mi South 15.0 mph 24.2 mph 0.00 in   Overcast
5:58 AM 28.9 °F 16.5 °F 28.9 °F 100% 30.20 in 0.8 mi South 18.4 mph 24.2 mph 0.00 in   Overcast
6:02 AM 28.4 °F 16.6 °F 28.4 °F 100% 30.16 in 0.5 mi South 16.1 mph 24.2 mph 0.00 in Fog Light Freezing Fog
6:10 AM 28.4 °F 16.6 °F 28.4 °F 100% 30.16 in 0.2 mi South 16.1 mph 23.0 mph 0.00 in Fog Light Freezing Fog
6:58 AM 28.9 °F 16.9 °F 28.9 °F 100% 30.20 in 0.2 mi South 17.3 mph 23.0 mph 0.00 in Fog Light Freezing Fog
7:58 AM 30.0 °F 19.1 °F 30.0 °F 100% 30.21 in 0.2 mi South 15.0 mph 21.9 mph 0.00 in Fog , Snow Light Snow
8:45 AM 30.2 °F 18.1 °F 30.2 °F 100% 30.19 in 0.5 mi SSW 18.4 mph 27.6 mph 0.00 in Fog Light Freezing Fog
8:54 AM 30.2 °F 18.1 °F 30.2 °F 100% 30.19 in 0.2 mi SSW 18.4 mph 25.3 mph 0.00 in Fog Light Freezing Fog
8:58 AM 30.9 °F 19.4 °F 30.9 °F 100% 30.23 in 0.2 mi SSW 17.3 mph 26.5 mph 0.00 in Fog Light Freezing Fog
9:58 AM 30.9 °F 18.1 °F 30.9 °F 100% 30.25 in 0.2 mi SSW 21.9 mph 28.8 mph 0.00 in Fog , Snow Light Snow
10:58 AM 30.9 °F 19.1 °F 30.9 °F 100% 30.28 in 0.2 mi SSW 18.4 mph 26.5 mph 0.00 in Fog , Snow Light Snow
11:58 AM 32.0 °F 20.1 °F 32.0 °F 100% 30.31 in 0.2 mi SSW 19.6 mph 24.2 mph 0.00 in Fog , Snow Light Snow
12:29 PM 32.0 °F 22.1 °F 32.0 °F 100% 30.28 in 0.5 mi SSW 13.8 mph 24.2 mph 0.00 in Fog , Snow Light Snow
12:35 PM 32.0 °F 20.5 °F 32.0 °F 100% 30.29 in 1.0 mi SSW 18.4 mph 23.0 mph 0.00 in Snow Light Snow
12:40 PM 32.0 °F 21.6 °F 32.0 °F 100% 30.29 in 1.5 mi SSW 15.0 mph 23.0 mph 0.00 in   Overcast
12:50 PM 32.0 °F 22.5 °F 32.0 °F 100% 30.29 in 2.5 mi South 12.7 mph 20.7 mph 0.00 in   Overcast
12:58 PM 32.0 °F 21.6 °F 32.0 °F 100% 30.33 in 3.0 mi SSW 15.0 mph 23.0 mph 0.00 in   Overcast
1:36 PM 33.8 °F 21.9 °F 33.8 °F 100% 30.31 in 2.5 mi SSW 21.9 mph 28.8 mph 0.00 in Snow Light Snow
1:58 PM 33.1 °F 21.5 °F 33.1 °F 100% 30.36 in 2.0 mi SSW 19.6 mph 28.8 mph 0.00 in Snow Light Snow
2:10 PM 33.8 °F 22.8 °F 33.8 °F 100% 30.33 in 1.5 mi SSW 18.4 mph 29.9 mph 0.00 in Snow Light Snow
2:30 PM 33.8 °F 23.5 °F 33.8 °F 100% 30.34 in 2.5 mi SSW 16.1 mph 25.3 mph 0.00 in Snow Light Snow
2:34 PM 33.8 °F 22.5 °F 33.8 °F 100% 30.35 in 4.0 mi SSW 19.6 mph 25.3 mph 0.00 in Snow Light Snow
2:44 PM 33.8 °F 23.2 °F 32.0 °F 93% 30.35 in 7.0 mi SSW 17.3 mph 27.6 mph 0.00 in   Overcast
2:58 PM 34.0 °F 23.8 °F 32.0 °F 92% 30.39 in 8.0 mi SSW 16.1 mph 24.2 mph 0.00 in   Overcast
3:58 PM 35.1 °F 24.5 °F 30.0 °F 82% 30.42 in 9.0 mi South 18.4 mph 26.5 mph N/A   Scattered Clouds
4:58 PM 35.1 °F 24.8 °F 28.9 °F 78% 30.43 in 9.0 mi South 17.3 mph 24.2 mph N/A   Overcast
5:58 PM 35.1 °F 25.5 °F 28.9 °F 78% 30.43 in 9.0 mi South 15.0 mph - N/A   Overcast
6:58 PM 34.0 °F 23.4 °F 28.0 °F 79% 30.43 in 9.0 mi South 17.3 mph - N/A   Overcast
7:58 PM 33.1 °F 23.4 °F 28.9 °F 85% 30.43 in 10.0 mi South 13.8 mph 23.0 mph N/A   Overcast
8:58 PM 32.0 °F 20.5 °F 28.9 °F 88% 30.43 in 6.0 mi South 18.4 mph 27.6 mph 0.00 in   Overcast
9:11 PM 32.0 °F 20.1 °F 30.2 °F 93% 30.40 in 4.0 mi South 19.6 mph 26.5 mph 0.00 in   Overcast
9:47 PM 32.0 °F 20.8 °F 30.2 °F 93% 30.40 in 8.0 mi South 17.3 mph 24.2 mph 0.00 in   Overcast
9:58 PM 32.0 °F 21.6 °F 30.0 °F 92% 30.44 in 9.0 mi South 15.0 mph 25.3 mph 0.00 in   Overcast
10:58 PM 32.0 °F 20.8 °F 30.0 °F 92% 30.45 in 2.5 mi South 17.3 mph 25.3 mph 0.00 in   Overcast
11:05 PM 30.2 °F 18.9 °F 30.2 °F 100% 30.41 in 1.5 mi South 16.1 mph 23.0 mph 0.00 in Snow Light Snow
11:15 PM 30.2 °F 19.3 °F 30.2 °F 100% 30.41 in 2.0 mi South 15.0 mph 23.0 mph 0.00 in Snow Light Snow
11:20 PM 30.2 °F 18.9 °F 30.2 °F 100% 30.41 in 1.5 mi South 16.1 mph 24.2 mph 0.00 in Snow Light Snow
11:26 PM 30.2 °F 19.3 °F 30.2 °F 100% 30.41 in 1.5 mi South 15.0 mph 23.0 mph 0.00 in Snow Light Snow
11:33 PM 30.2 °F 20.2 °F 30.2 °F 100% 30.41 in 2.5 mi South 12.7 mph 20.7 mph 0.00 in Snow Light Snow
11:44 PM 30.2 °F 19.8 °F 30.2 °F 100% 30.41 in 1.5 mi South 13.8 mph - 0.00 in Snow Light Snow
11:58 PM 30.9 °F 20.2 °F 30.0 °F 96% 30.45 in 1.2 mi South 15.0 mph 25.3 mph 0.00 in Snow Light Snow